Zurück zum Katalog

STARLINK-34431

AktivKommunikationVLEO
NORAD 64353·PAYLOAD·🇺🇸 United States

Gestartet Jun 13, 2025 von Vandenberg Space Force Base

Loading…

Nächste Überflüge (nächste 24 Stunden)

TLE

AktuellSource: CelesTrak SupGP

Epoche: Sep 14, 2026, 23:10 UTC

1 64353C 25126K   26257.96576389  .00067369  00000+0  23437-2 0  2570
2 64353  70.0000 275.5729 0003322 268.2048 141.7589 15.29543432    11

Verfolge STARLINK-34431 in Echtzeit mit AllMySat

Download on the App Store